Date,TemperatureHighF,TemperatureAvgF,TemperatureLowF,DewpointHighF,DewpointAvgF,DewpointLowF,HumidityHigh,HumidityAvg,HumidityLow,PressureMaxIn,PressureMinIn,WindSpeedMaxMPH,WindSpeedAvgMPH,GustSpeedMaxMPH,PrecipitationSumIn
2012-1-1,85,59,44,68,49,42,98,75,30,30.12,29.97,4,1,6,0.00
2012-1-2,70,55,35,61,44,26,98,71,27,30.06,29.91,7,1,8,0.04
2012-1-3,52,40,29,29,12,5,70,33,18,30.24,30.00,9,2,13,0.00
2012-1-4,63,39,23,26,14,6,61,38,17,30.27,30.12,6,1,7,0.00
2012-1-5,74,45,23,44,32,15,87,62,32,30.15,30.00,8,1,9,0.00
2012-1-6,78,52,37,64,42,36,98,72,33,30.06,29.94,5,0,6,0.00
2012-1-7,81,56,41,61,45,39,98,72,31,30.03,29.94,4,0,4,0.00
2012-1-8,85,58,41,60,44,39,98,66,27,30.09,30.00,6,1,7,0.00
2012-1-11,71,63,53,66,57,51,97,81,57,29.71,29.62,6,1,11,0.08
2012-1-12,80,63,52,69,54,49,98,76,39,29.79,29.68,8,1,10,0.00
2012-1-13,64,52,43,61,32,22,91,47,30,30.06,29.79,6,2,8,0.00
2012-1-14,64,44,29,31,22,16,74,45,22,30.24,30.06,6,1,6,0.00
2012-1-15,76,46,26,45,26,18,88,53,21,30.27,30.15,6,1,9,0.00
2012-1-16,74,52,33,46,36,23,86,59,32,30.30,30.15,15,2,15,0.00
2012-1-17,84,58,41,61,45,39,98,67,30,30.18,30.00,6,1,7,0.00
2012-1-18,79,59,47,63,55,44,98,89,41,30.00,29.82,6,1,8,0.25
2012-1-19,76,54,40,58,38,24,98,64,22,30.06,29.88,7,1,7,0.00
2012-1-20,84,54,37,55,40,34,98,66,24,30.03,29.94,6,1,8,0.00
2012-1-21,83,61,48,60,48,42,98,69,31,30.00,29.85,6,1,9,0.00
2012-1-22,87,63,46,67,49,43,98,68,30,30.00,29.88,6,1,8,0.00
2012-1-23,86,66,52,68,54,48,98,72,33,30.00,29.85,6,1,7,0.00
2012-1-24,91,67,53,67,54,48,98,69,29,30.03,29.91,6,1,7,0.00
2012-1-25,87,72,57,67,54,45,98,58,29,30.03,29.91,11,2,13,0.00
2012-1-26,89,69,55,70,55,49,98,66,30,29.94,29.76,6,1,7,0.00
2012-1-27,72,64,50,66,58,47,98,82,53,29.91,29.74,6,1,10,0.25
2012-1-28,77,56,40,63,44,37,98,70,32,30.03,29.91,6,1,7,0.00
2012-1-29,78,57,42,54,42,32,98,64,26,30.18,30.03,9,1,9,0.00
2012-1-30,76,57,42,44,38,32,91,57,23,30.24,30.12,10,2,14,0.00
2012-1-31,80,61,46,56,45,39,96,60,31,30.21,30.09,12,3,15,0.00
2012-2-1,87,66,53,56,50,43,91,61,28,30.12,29.97,8,1,10,0.00
2012-2-2,88,67,54,59,51,44,95,63,24,30.03,29.91,6,1,9,0.00
2012-2-3,80,66,57,66,54,49,98,69,39,30.09,30.00,15,3,21,0.00
2012-2-4,83,70,60,59,54,48,88,60,33,30.06,29.91,13,3,18,0.00
2012-2-5,90,70,57,69,57,52,98,70,33,29.94,29.79,5,1,6,0.00
2012-2-6,86,70,60,67,61,54,98,77,39,29.94,29.82,8,2,10,0.13
2012-2-7,72,64,57,64,60,53,98,87,61,29.94,29.85,6,2,8,0.00
2012-2-8,83,62,52,55,44,32,98,60,21,29.97,29.85,6,1,6,0.00
2012-2-9,70,59,50,49,44,39,82,60,41,30.03,29.91,5,1,6,0.00
2012-2-10,84,66,53,63,56,49,96,72,36,29.97,29.74,6,2,7,0.00
2012-2-11,69,56,44,60,40,20,97,59,34,30.00,29.71,12,3,12,0.25
2012-2-12,58,40,27,21,11,4,54,31,17,30.21,30.00,8,2,10,0.00
2012-2-13,70,46,23,31,24,13,78,46,22,30.15,29.94,6,1,9,0.00
2012-2-14,84,61,41,53,44,30,96,59,29,29.97,29.85,10,1,13,0.00
2012-2-15,86,70,59,59,53,48,82,56,31,30.03,29.91,6,1,10,0.00
2012-2-16,88,69,57,61,55,49,91,65,32,30.03,29.88,6,1,9,0.00
2012-2-17,78,68,59,69,62,57,98,83,55,29.94,29.82,4,0,5,0.00
2012-2-18,88,70,62,68,61,54,98,76,39,29.88,29.71,5,1,9,0.00
2012-2-19,86,70,60,70,60,48,98,73,44,29.76,29.62,10,2,12,0.00
2012-2-20,77,59,48,53,42,34,88,58,31,30.09,29.76,10,3,13,0.00
2012-2-21,82,62,47,55,46,40,95,61,30,30.09,29.94,5,1,10,0.00
2012-2-22,85,64,50,65,55,47,98,77,37,29.94,29.74,6,1,9,0.20
2012-2-23,87,73,65,72,65,57,98,79,43,29.79,29.71,10,1,11,0.00
2012-2-24,92,74,63,71,61,50,98,70,28,29.82,29.74,10,2,12,0.00
2012-2-25,75,63,51,68,35,22,91,39,21,30.12,29.82,10,3,10,0.00
2012-2-26,64,56,48,61,42,27,98,64,39,30.18,30.09,10,2,10,0.33
2012-2-27,86,70,61,68,63,57,98,82,43,30.15,30.03,6,2,8,0.00
2012-2-28,85,69,59,66,62,57,98,81,43,30.15,30.03,10,2,13,0.13
2012-2-29,91,72,58,73,59,51,98,71,31,30.09,29.91,6,1,8,0.00
2012-3-1,92,72,62,68,61,53,97,73,31,29.97,29.82,6,1,9,0.00
2012-3-2,90,72,62,68,59,50,98,70,31,29.91,29.76,8,1,11,0.00
2012-3-3,95,75,61,72,60,49,98,66,28,29.76,29.62,10,2,15,0.00
2012-3-4,76,60,39,66,40,23,93,52,20,30.06,29.47,13,3,14,0.13
2012-3-5,84,56,34,48,35,29,91,52,16,30.21,30.03,6,1,8,0.00
2012-3-6,81,63,48,50,44,40,87,54,30,30.30,30.15,18,4,20,0.00
2012-3-7,83,68,58,56,49,45,82,54,31,30.27,30.15,15,4,19,0.00
2012-3-8,92,71,56,66,56,48,98,64,27,30.15,29.97,10,2,13,0.00
2012-3-9,86,71,63,69,62,57,97,76,41,30.06,29.94,4,1,6,0.04
2012-3-10,82,67,62,64,59,53,97,76,44,30.09,29.97,10,2,11,0.00
2012-3-11,71,67,63,67,63,59,98,89,71,30.18,30.06,13,5,17,0.00
2012-3-12,88,71,59,62,54,47,90,57,31,30.15,30.03,13,4,16,0.04
2012-3-13,88,70,56,65,53,46,98,60,28,30.12,29.97,13,2,13,0.00
2012-3-14,93,72,56,68,54,48,98,60,28,30.12,29.97,10,2,11,0.00
2012-3-15,92,72,56,69,57,47,98,65,28,30.12,29.97,10,2,12,0.00
2012-3-16,92,71,55,70,54,44,98,62,24,30.09,29.94,11,2,11,0.00
2012-3-17,91,71,54,69,52,44,98,58,28,30.09,29.97,11,2,13,0.00
2012-3-18,92,70,52,67,52,45,98,59,27,30.09,29.97,10,2,12,0.00
2012-3-19,91,69,54,68,54,47,98,66,28,30.03,29.94,13,2,13,0.00
2012-3-20,66,61,58,57,56,55,91,84,74,29.97,29.91,4,0,5,0.00
2012-3-25,90,75,58,71,47,37,98,42,21,29.76,29.65,8,2,10,0.00
2012-3-26,93,69,51,63,48,40,98,56,19,29.88,29.74,6,1,10,0.00
2012-3-27,93,70,50,63,48,38,96,52,21,30.03,29.85,11,2,12,0.00
2012-3-28,93,73,58,67,53,42,98,57,23,30.03,29.88,10,2,10,0.00
2012-3-29,96,72,56,66,54,47,98,60,23,29.94,29.79,6,1,8,0.00
2012-3-30,98,74,56,65,55,46,96,60,20,29.91,29.79,7,1,9,0.00
2012-3-31,86,70,60,69,61,58,97,75,43,29.85,29.68,10,1,11,0.50
2012-4-1,96,73,59,72,59,50,98,68,27,29.79,29.68,6,1,6,0.00
2012-4-2,98,74,62,75,59,48,98,68,25,29.79,29.71,4,1,7,0.00
2012-4-3,102,76,58,73,55,43,98,59,16,29.85,29.71,4,1,7,0.00
2012-4-4,99,75,58,69,55,44,98,58,20,29.82,29.65,9,1,11,0.00
2012-4-5,96,76,66,67,58,51,91,59,27,29.71,29.59,7,1,9,0.00
2012-4-6,93,73,61,73,55,39,98,60,19,29.85,29.56,10,2,13,0.00
2012-4-7,90,70,57,50,45,38,65,43,20,30.03,29.85,12,4,18,0.00
2012-4-8,93,71,51,53,44,36,79,42,19,30.06,29.88,10,2,10,0.00
2012-4-9,95,72,51,59,47,39,93,49,19,29.94,29.82,6,1,8,0.00
2012-4-10,98,72,54,60,50,42,91,53,19,29.91,29.79,6,1,8,0.00
2012-4-11,97,73,55,68,50,40,98,55,17,29.91,29.79,7,1,8,0.00
2012-4-12,95,73,55,56,47,38,79,47,16,29.94,29.82,10,2,11,0.00
2012-4-13,96,73,58,63,52,39,94,56,18,30.00,29.85,13,3,18,0.00
2012-4-14,85,71,61,66,56,50,96,62,33,30.09,29.97,13,3,20,0.00
2012-4-15,92,72,59,61,53,46,95,57,25,30.06,29.97,10,2,13,0.00
2012-4-16,94,75,57,62,53,44,97,51,23,30.06,29.94,10,2,12,0.00
2012-4-17,97,76,56,66,50,43,96,49,18,30.03,29.85,10,2,12,0.00
2012-4-18,99,78,62,63,54,44,80,47,20,29.94,29.79,8,1,10,0.00
2012-4-19,91,74,61,68,60,54,95,65,31,29.85,29.71,6,1,7,0.00
2012-4-20,103,76,64,73,61,53,98,67,26,29.76,29.65,7,1,9,0.00
2012-4-21,88,71,65,70,63,56,98,80,38,29.71,29.47,9,1,12,0.00
2012-4-22,90,70,60,70,58,42,98,71,32,29.59,29.35,6,2,10,0.00
2012-4-23,80,65,51,42,36,31,55,36,21,29.76,29.59,10,3,14,0.00
2012-4-24,82,62,43,38,29,22,61,33,11,29.88,29.76,6,2,8,0.00
2012-4-25,93,67,43,51,41,33,89,45,17,29.97,29.85,8,1,8,0.00
2012-4-26,98,72,51,59,50,44,95,54,19,30.00,29.88,7,1,8,0.00
2012-4-27,100,75,54,68,53,40,98,57,16,30.00,29.85,6,1,8,0.00
2012-4-28,99,77,58,66,55,50,94,54,23,29.94,29.85,10,2,11,0.00
2012-4-29,96,77,63,75,59,50,97,60,26,29.97,29.85,11,3,13,0.00
2012-4-30,93,78,65,74,60,50,98,60,28,29.97,29.88,15,4,17,0.00
2012-5-1,97,80,67,72,61,52,96,59,27,29.94,29.82,14,4,14,0.00
2012-5-2,100,80,68,70,60,50,98,57,23,29.94,29.85,11,4,15,0.00
2012-5-3,71,71,71,62,62,61,73,72,72,29.94,29.94,1,0,4,0.00
2012-5-13,91,82,72,61,57,53,67,43,30,29.97,29.85,8,2,10,0.00
2012-5-14,95,75,69,78,65,56,94,73,32,29.91,29.76,8,1,10,0.00
2012-5-15,99,80,68,74,62,51,97,62,26,29.88,29.74,6,1,6,0.00
2012-5-16,88,73,67,72,66,59,95,82,49,29.85,29.74,4,0,6,0.00
2012-5-17,99,78,68,73,63,52,97,65,25,29.82,29.68,7,1,7,0.00
2012-5-18,99,78,63,68,62,51,98,63,27,29.79,29.71,10,2,13,0.00
2012-5-19,100,79,66,69,60,50,96,58,24,29.88,29.74,11,2,14,0.00
2012-5-20,102,79,62,66,50,25,95,49,7,29.85,29.74,6,1,8,0.00
2012-5-21,103,78,56,62,50,42,91,44,16,29.85,29.74,6,1,8,0.00
2012-5-22,107,82,62,64,54,42,90,47,14,29.82,29.68,6,1,6,0.00
2012-5-23,104,82,63,71,58,47,97,54,17,29.79,29.65,6,1,8,0.00
2012-5-24,106,81,68,73,63,52,96,60,20,29.79,29.68,13,2,16,0.00
2012-5-25,104,84,67,75,61,46,97,55,18,29.91,29.76,13,2,13,0.00
2012-5-26,107,83,63,73,57,47,97,50,16,29.91,29.79,13,2,13,0.00
2012-5-27,105,83,68,67,59,49,78,49,19,29.82,29.65,8,2,11,0.00
2012-5-28,87,76,71,75,69,64,95,81,59,29.76,29.62,6,1,10,0.00
2012-5-29,79,73,69,72,70,67,98,93,69,29.79,29.68,8,1,10,0.00
2012-5-30,100,80,71,82,69,59,98,76,29,29.76,29.65,6,1,11,0.00
2012-5-31,104,82,70,81,67,56,98,68,26,29.76,29.68,9,1,13,0.00
2012-6-1,87,75,70,74,70,65,97,84,51,29.79,29.68,5,1,6,0.00
2012-6-8,81,76,74,76,72,71,97,88,77,29.82,29.74,3,0,6,0.00
2012-6-9,97,76,71,76,71,61,98,87,38,29.88,29.76,6,2,10,0.00
2012-6-10,101,82,71,80,70,61,98,71,32,29.97,29.82,8,1,8,0.00
2012-6-11,102,83,68,76,66,58,98,63,27,29.97,29.88,8,1,8,0.00
2012-6-12,103,84,69,72,64,57,94,58,26,29.94,29.76,6,1,7,0.00
2012-6-13,104,84,71,77,66,52,95,61,25,29.82,29.71,8,1,9,0.08
2012-6-14,103,81,69,72,68,56,98,71,27,29.85,29.76,12,2,16,1.00
2012-6-15,93,79,71,77,66,56,98,69,32,29.91,29.79,11,2,12,0.00
2012-6-16,95,80,68,72,62,53,95,59,31,29.91,29.82,13,3,17,0.00
2012-6-17,96,80,69,73,62,53,96,60,28,29.91,29.79,9,2,11,0.00
2012-6-18,98,81,67,71,59,49,96,54,22,29.91,29.82,12,3,13,0.35
2012-6-19,73,70,66,68,62,57,92,78,58,29.91,29.85,4,1,5,0.00
2012-7-6,102,88,75,70,65,58,79,50,28,29.88,29.82,5,1,6,0.00
2012-7-7,104,85,71,76,66,56,96,62,25,29.91,29.85,6,1,9,0.00
2012-7-8,107,86,72,77,67,57,95,60,23,29.94,29.82,8,1,9,0.00
2012-7-9,105,82,72,77,68,58,95,69,25,29.88,29.79,9,1,9,0.00
2012-7-10,106,80,69,76,68,59,98,73,25,29.88,29.79,7,1,11,0.25
2012-7-11,91,77,70,77,71,64,98,83,57,29.91,29.79,6,1,14,1.29
2012-7-12,95,80,69,78,68,62,98,71,37,29.88,29.76,6,2,10,0.00
2012-7-13,100,82,72,76,70,60,98,73,30,29.91,29.82,10,2,13,0.04
2012-7-14,100,84,72,76,68,58,98,63,28,29.94,29.85,13,3,13,0.00
2012-7-15,100,80,72,76,69,60,96,72,31,29.97,29.85,10,1,13,0.00
2012-7-16,102,79,70,77,69,61,98,76,29,29.91,29.79,10,1,11,0.83
2012-7-17,93,76,70,76,70,61,98,82,44,29.85,29.79,7,1,7,0.13
2012-7-18,92,77,71,77,70,60,98,82,43,29.97,29.82,5,1,9,0.08
2012-7-19,100,82,72,78,71,64,97,73,37,30.00,29.91,8,1,8,0.08
2012-7-20,102,85,72,81,69,60,98,67,29,29.97,29.85,4,1,7,0.00
2012-7-21,103,85,73,78,68,58,96,64,26,29.94,29.85,8,1,8,0.04
2012-7-22,100,81,72,79,70,60,97,74,31,30.00,29.88,16,2,25,0.00
2012-7-23,99,77,71,77,71,62,98,83,34,30.00,29.94,9,1,11,1.12
2012-7-24,96,80,71,79,70,61,98,74,42,29.97,29.82,8,1,8,0.09
2012-7-25,96,80,72,78,72,66,97,78,46,29.85,29.79,4,1,7,0.04
2012-7-26,99,84,72,80,70,61,98,68,32,29.85,29.79,6,1,9,0.00
2012-7-27,101,85,71,80,69,60,98,67,28,29.91,29.79,6,1,9,0.00
2012-7-30,87,75,71,76,70,66,96,86,61,29.88,29.82,6,1,10,0.04
2012-7-31,98,78,70,79,72,62,98,84,38,29.85,29.76,8,0,8,0.29
2012-8-1,94,79,72,83,73,63,98,84,44,29.82,29.74,7,0,7,0.58
2012-8-2,99,82,72,82,71,59,98,73,37,29.82,29.74,6,1,6,0.00
2012-8-3,104,81,71,78,69,60,98,71,27,29.85,29.76,10,1,13,0.00
2012-8-4,102,82,70,80,68,59,98,68,27,29.88,29.79,12,1,12,0.00
2012-8-5,102,82,74,77,70,62,95,72,31,29.91,29.82,10,1,15,0.00
2012-8-6,104,82,73,78,71,60,98,76,27,29.91,29.79,13,1,15,0.42
2012-8-7,100,81,72,81,71,65,98,74,38,29.85,29.79,4,1,7,0.00
2012-8-8,102,84,72,78,70,61,97,68,29,29.88,29.79,8,1,10,0.00
2012-8-9,103,84,71,76,67,58,97,64,26,29.85,29.76,7,1,7,0.00
2012-8-10,103,78,70,78,70,62,98,81,30,29.82,29.74,6,0,17,2.25
2012-8-11,102,80,70,80,71,59,98,78,29,29.82,29.74,4,1,6,0.37
2012-8-12,99,80,71,78,71,60,98,77,38,29.88,29.79,6,1,8,0.13
2012-8-13,99,82,72,82,71,65,98,74,38,29.91,29.82,6,0,8,0.00
2012-8-14,102,82,72,80,71,62,98,75,31,29.88,29.79,6,1,10,0.62
2012-8-15,103,84,71,80,68,59,98,66,28,29.88,29.79,6,1,8,0.00
2012-8-16,103,82,73,79,70,57,96,71,30,29.91,29.79,6,1,9,0.04
2012-8-17,97,82,73,80,70,59,97,70,32,29.85,29.76,5,1,6,0.00
2012-8-18,96,81,73,77,71,63,97,75,37,29.82,29.71,6,1,10,0.00
2012-8-19,100,80,73,79,72,64,98,80,39,29.79,29.74,8,1,9,0.25
2012-8-20,100,81,72,80,71,63,98,77,35,29.85,29.71,7,1,10,0.70
2012-8-21,99,76,70,79,71,63,98,86,37,29.91,29.76,10,1,13,0.50
2012-8-22,92,74,70,79,71,59,98,92,47,29.94,29.82,9,0,13,1.74
2012-8-23,95,79,71,78,70,60,98,78,38,29.94,29.85,7,1,9,0.05
2012-8-24,99,82,69,73,65,54,97,64,28,29.91,29.79,8,1,11,0.04
2012-8-25,95,78,71,75,68,59,98,73,38,29.88,29.79,14,3,18,0.00
2012-8-26,90,79,74,75,72,67,95,83,51,29.85,29.71,12,4,15,0.08
2012-8-27,86,78,73,76,74,71,98,88,66,29.74,29.62,19,6,19,0.29
2012-8-28,100,80,74,78,73,60,98,83,36,29.82,29.71,8,1,9,0.00
2012-8-29,97,80,72,81,72,63,98,78,38,29.82,29.74,0,0,0,0.00
2012-8-30,101,82,72,79,71,63,98,74,33,29.94,29.79,0,0,0,0.00
2012-8-31,100,83,73,80,70,61,98,70,31,30.03,29.91,0,0,0,0.00
2012-9-1,101,83,74,80,67,56,97,65,29,30.00,29.85,0,0,0,0.00
2012-9-2,99,82,69,77,65,55,97,63,27,29.91,29.79,0,0,0,0.00
2012-9-3,101,82,68,75,65,53,97,64,27,29.88,29.79,0,0,0,0.00
2012-9-4,102,82,69,79,65,54,98,65,25,29.85,29.74,0,0,0,0.00
2012-9-5,99,81,70,77,66,56,97,66,28,29.82,29.74,0,0,0,0.00
2012-9-6,99,80,69,76,68,59,98,71,32,29.85,29.76,2,0,5,0.00
2012-9-7,100,80,69,77,68,60,98,71,32,29.82,29.71,6,0,6,2.82
2012-9-8,95,81,70,80,68,59,98,70,37,29.76,29.68,6,1,12,0.00
2012-9-9,88,78,74,75,73,69,97,85,58,29.76,29.68,6,1,8,0.25
2012-9-10,98,81,72,78,68,61,98,70,36,29.85,29.74,7,2,10,0.00
2012-9-11,91,79,69,71,62,55,88,60,37,29.97,29.85,15,3,15,0.00
2012-9-12,92,78,68,76,63,57,86,63,37,30.00,29.91,12,3,14,0.13
2012-9-13,97,80,71,73,64,56,95,63,30,29.97,29.85,12,2,12,0.00
2012-9-14,97,79,71,75,68,60,97,73,32,29.91,29.82,14,2,14,0.62
2012-9-15,93,79,71,75,68,59,97,72,41,29.91,29.82,11,2,13,0.00
2012-9-16,94,79,72,75,68,58,96,73,36,29.91,29.79,9,1,10,0.13
2012-9-17,96,79,71,75,69,62,98,76,38,29.85,29.74,10,1,12,0.49
2012-9-18,94,76,72,78,73,59,98,92,49,29.79,29.68,7,0,8,0.79
2012-9-19,97,80,72,79,69,61,98,73,36,29.88,29.74,6,1,6,0.00
2012-9-20,95,79,72,76,68,60,96,72,37,29.88,29.76,7,1,7,0.00
2012-9-21,72,72,71,68,68,67,91,88,86,29.85,29.82,3,0,4,0.00
2012-9-22,96,83,71,76,64,58,96,57,30,29.88,29.79,6,1,7,0.00
2012-9-23,98,79,66,77,63,54,98,65,28,29.91,29.82,4,1,5,0.00
2012-9-24,94,75,62,61,52,43,80,49,18,29.94,29.85,6,1,13,0.00
2012-9-25,93,74,65,69,64,57,92,73,38,29.94,29.85,10,2,13,0.00
2012-9-26,99,79,66,76,64,52,98,67,26,29.97,29.88,6,1,8,0.00
2012-9-27,98,79,68,79,66,53,98,71,26,29.97,29.82,11,1,15,0.12
2012-9-28,98,79,70,78,68,60,98,74,32,29.91,29.79,10,1,14,0.00
2012-9-29,97,79,69,76,67,56,98,70,31,29.82,29.68,5,1,6,0.00
2012-9-30,99,80,70,80,69,58,98,76,32,29.74,29.62,6,1,8,1.12
2012-10-1,97,79,70,80,71,63,98,80,39,29.65,29.56,6,1,8,0.00
2012-10-2,91,78,72,79,72,66,97,84,51,29.85,29.62,8,1,14,0.00
2012-10-3,92,75,72,79,72,67,98,91,55,30.00,29.85,4,0,10,0.00
2012-10-4,98,81,70,79,70,60,98,74,34,30.03,29.88,8,1,10,0.00
2012-10-7,96,82,72,68,65,60,87,58,36,29.82,29.74,6,1,7,0.00
2012-10-8,94,76,69,75,70,63,97,82,40,29.88,29.76,4,0,6,0.17
2012-10-9,84,74,68,72,69,64,98,84,56,29.91,29.79,5,1,7,0.00
2012-10-10,92,73,66,71,61,49,97,71,29,29.97,29.85,6,1,8,0.00
2012-10-13,89,82,70,63,56,52,70,42,33,30.03,29.91,11,4,14,0.00
2012-10-14,91,82,70,66,61,58,86,51,35,29.94,29.82,11,3,13,0.00
2012-10-15,96,76,68,78,66,59,97,74,35,29.82,29.65,4,0,4,0.00
2012-10-16,91,73,63,68,57,47,98,63,27,29.74,29.62,6,1,8,0.00
2012-10-17,80,71,64,70,63,56,97,76,55,29.74,29.65,6,0,6,0.00
2012-10-18,96,75,64,76,63,55,98,72,30,29.74,29.62,5,1,8,0.00
2012-10-19,94,74,61,75,63,58,98,73,38,29.74,29.62,5,1,6,0.00
2012-10-20,89,71,53,67,49,34,95,53,20,29.79,29.71,6,1,8,0.00
2012-10-21,89,67,48,61,46,38,97,56,20,29.91,29.79,10,2,10,0.00
2012-10-22,90,71,58,63,54,50,90,60,29,29.94,29.82,12,2,14,0.00
2012-10-23,79,72,66,59,56,50,77,59,37,29.88,29.82,6,1,10,0.00
2012-10-24,90,74,64,66,60,54,92,64,35,29.88,29.76,11,2,14,0.00
2012-10-25,87,74,68,71,64,56,90,73,37,29.79,29.68,14,2,15,0.00
2012-10-26,91,77,70,68,59,50,87,58,28,29.68,29.50,14,3,14,0.00
2012-10-27,77,70,65,56,53,50,69,56,42,29.56,29.41,11,3,11,0.00
2012-10-28,76,65,56,56,52,47,84,65,38,29.65,29.53,6,2,8,0.00
2012-10-29,72,57,47,48,36,28,74,47,24,29.71,29.56,8,2,10,0.00
2012-10-30,71,55,42,39,28,21,73,38,22,29.76,29.65,11,2,11,0.00
2012-10-31,77,57,40,45,35,29,92,50,21,29.85,29.76,9,1,10,0.00
2012-11-1,86,64,52,64,51,44,97,69,30,29.85,29.76,8,1,10,0.00
2012-11-2,86,60,45,61,42,31,98,61,20,29.91,29.82,5,1,6,0.00
2012-11-3,91,65,49,65,51,44,96,67,29,29.94,29.85,4,0,6,0.00
2012-11-4,90,67,55,69,55,47,97,71,31,29.97,29.82,6,0,8,0.00
2012-11-5,88,68,58,70,54,44,98,68,28,29.85,29.74,6,1,8,0.00
2012-11-6,83,62,52,66,51,44,96,71,34,29.76,29.65,6,1,8,0.00
2012-11-7,73,57,45,54,42,33,95,62,31,29.82,29.71,6,2,8,0.00
2012-11-8,75,53,39,42,36,30,88,57,23,30.00,29.82,7,1,11,0.00
2012-11-9,79,53,35,53,34,22,98,57,17,30.12,30.00,8,1,10,0.00
2012-11-10,84,60,40,53,42,36,96,59,23,30.15,30.06,14,2,14,0.00
2012-11-11,87,67,52,61,52,45,97,64,29,30.15,30.06,12,2,17,0.00
2012-11-12,89,70,57,67,57,49,98,69,29,30.09,29.97,11,2,11,0.00
2012-11-13,87,69,58,71,57,48,98,72,32,30.03,29.91,6,0,6,0.00
2012-11-14,77,67,60,65,60,55,98,81,50,30.03,29.94,7,1,9,0.00
2012-11-15,64,61,57,61,58,53,97,88,74,30.00,29.91,6,1,6,0.00
2012-11-16,68,60,57,54,50,45,87,71,45,30.03,29.94,6,1,9,0.00
2012-11-17,81,64,56,57,53,50,84,68,39,30.03,29.91,9,2,12,0.00
2012-11-18,74,59,48,55,50,45,93,74,42,30.03,29.97,10,1,12,0.00
2012-11-19,64,56,46,56,49,44,98,80,56,30.00,29.91,5,1,6,0.00
2012-11-20,80,62,52,55,50,44,93,70,32,29.94,29.82,8,1,10,0.00
2012-11-21,80,59,45,59,44,36,98,64,25,29.94,29.82,7,1,8,0.00
2012-11-22,79,55,37,44,30,18,91,48,13,30.03,29.91,8,1,11,0.00
2012-11-23,80,52,32,44,30,21,85,49,20,30.03,29.91,6,1,6,0.00
2012-11-25,47,40,36,29,25,21,72,56,36,30.00,29.97,0,0,3,0.00
2012-11-26,83,55,33,51,38,28,91,60,22,30.06,29.94,8,1,8,0.00
2012-11-27,72,56,52,54,51,47,95,83,42,30.03,29.91,1,0,3,0.00
2012-11-28,74,60,52,60,52,46,97,76,43,30.12,29.94,8,2,10,0.00
2012-11-29,80,61,48,57,47,40,98,66,32,30.12,30.03,13,2,13,0.00
2012-11-30,82,62,51,63,48,42,98,68,31,30.09,30.00,11,1,12,0.00
2012-12-1,86,65,53,62,52,44,98,69,30,30.09,30.00,12,1,13,0.00
2012-12-2,86,67,57,65,55,45,98,70,29,30.15,30.00,10,1,11,0.00
2012-12-3,86,68,58,67,55,45,97,69,31,30.12,30.00,8,2,10,0.00
2012-12-4,84,65,53,65,51,40,98,66,29,30.12,30.00,10,2,11,0.00
2012-12-5,86,64,51,62,53,45,96,72,29,30.03,29.88,10,1,10,0.00
2012-12-6,83,68,60,66,56,49,98,72,35,29.88,29.76,8,2,10,0.00
2012-12-7,79,66,62,63,60,54,98,81,47,29.85,29.76,6,1,8,0.00
2012-12-8,79,67,61,67,62,58,98,85,52,29.88,29.79,5,1,6,0.00
2012-12-9,83,70,66,71,65,59,98,87,51,29.94,29.82,4,0,4,0.00
2012-12-11,72,71,70,69,68,68,96,91,87,29.85,29.82,3,0,3,0.04
2012-12-12,84,71,63,72,67,61,98,88,51,29.91,29.79,5,0,6,0.21
2012-12-13,63,59,52,62,56,48,98,89,73,30.06,29.88,9,0,9,0.00
2012-12-14,66,56,51,55,52,49,98,86,65,30.09,29.94,3,0,4,0.00
2012-12-15,82,64,54,63,55,49,98,76,40,30.00,29.88,6,0,8,0.00
2012-12-16,86,65,54,70,55,50,98,75,34,29.91,29.79,4,0,6,0.00
2012-12-17,88,68,55,68,57,50,98,75,32,29.82,29.68,5,0,8,0.00
2012-12-18,85,66,45,71,53,33,98,68,26,29.85,29.71,6,1,10,0.00
2012-12-19,82,57,40,52,39,32,98,61,20,29.94,29.85,6,1,8,0.00
2012-12-20,88,67,51,69,56,47,98,71,33,29.91,29.74,7,1,10,0.04
2012-12-21,67,52,40,64,30,21,91,45,21,30.03,29.76,9,2,11,0.00
2012-12-22,66,46,31,25,16,9,68,33,14,30.12,30.00,6,2,8,0.00
2012-12-23,72,45,26,42,25,16,87,53,15,30.09,29.97,5,0,6,0.00
2012-12-24,72,56,42,47,40,32,77,57,32,29.97,29.82,9,0,9,0.00
2012-12-25,78,62,52,60,51,46,95,70,36,29.85,29.71,4,0,6,0.00
2012-12-26,77,62,46,65,53,33,91,72,46,29.82,29.59,9,2,12,0.08
2012-12-27,64,46,34,35,31,27,85,59,33,29.94,29.82,6,1,9,0.00
2012-12-28,71,54,34,61,40,31,98,66,30,29.97,29.76,7,1,8,0.17
2012-12-29,78,64,47,71,55,34,98,76,42,30.00,29.68,8,1,10,0.00
2012-12-30,59,45,35,36,29,24,75,56,30,30.21,30.00,10,2,11,0.00
2012-12-31,76,52,39,49,41,33,90,71,32,30.21,30.03,8,1,11,0.00
2013-1-1,65,55,49,62,50,45,98,87,53,30.06,29.88,2,0,2,0.00